Regional Weather Roundup
Issued by NWS

Home | Current Version | Previous Version | Graphics & Text | Print | Product List | Glossary Off
Versions: 1 2 3 4 5 6 7 8 9 10 11 12 13 14 15 16 17 18 19 20 21 22 23 24 25 26 27 28 29 30 31 32 33 34 35 36 37 38 39 40 41 42 43 44 45 46 47 48 49 50

000
ASUS43 KMPX 231010
RWRMN
WEATHER ROUNDUP FOR MINNESOTA
NATIONAL WEATHER SERVICE TWIN CITIES/CHANHASSEN MN
500 AM CDT SUN APR 23 2017


NOTE: "FAIR" INDICATES FEW OR NO CLOUDS BELOW 12,000 FEET WITH NO
SIGNIFICANT WEATHER AND/OR OBSTRUCTIONS TO VISIBILITY. N/A MEANS
CURRENT SKY AND/OR WEATHER CONDITIONS ARE NOT AVAILABLE.

MNZ060>063-068>070-231100-
   Twin Cities Metro

CITY           SKY/WX    TMP DP  RH WIND       PRES   REMARKS
TWIN CITIES    CLEAR     51  35  54 SW9       30.05F
ST PAUL        PTCLDY    49  38  65 NW3       30.06F
CRYSTAL        CLEAR     50  35  56 NW7       30.06R
BLAINE         CLEAR     48  37  66 CALM      30.06R
LAKEVILLE      MOCLDY    48  37  66 SW6       30.07S
EDEN PRAIRIE   PTCLDY    48  36  63 SW6       30.05F
SOUTH ST PAUL  PTCLDY    51  35  54 SW7       30.05F
LAKE ELMO      FAIR      50  37  62 N9        30.07R
$$
MNZ001>005-007-008-013>017-022>024-027-028-231100-
   Northwest Minnesota

CITY           SKY/WX    TMP DP  RH WIND       PRES   REMARKS
BEMIDJI        CLOUDY    32  25  76 NE10      30.18F WCI  24
HALLOCK        CLOUDY    28  19  69 NE9       30.27F WCI  20
ROSEAU         MOCLDY    28  21  74 N10       30.26S WCI  19
WARROAD        CLOUDY    30  19  64 NE14      30.26S WCI  20
THIEF RVR FALL CLOUDY    30  24  78 NE16      30.22F WCI  19
CROOKSTON      CLOUDY    32  25  74 NE10      30.23S WCI  24
FOSSTON        FLURRIES  30  28  93 NE9       30.20R WCI  22
DETROIT LAKES  LGT RAIN  36  34  93 NE14G22   30.15R
MOORHEAD       LGT RAIN  34  32  93 NE13      30.17F WCI  25
PARK RAPIDS    LGT SNOW  35  31  85 NE9       30.14R FOG     WCI  28
MAHNOMEN       HVY SNOW  32  31  96 NE13      30.18R VSB 1/4 WCI  22
$$
MNZ006-009>011-018-025>026-231100-
   North Central Minnesota

CITY           SKY/WX    TMP DP  RH WIND       PRES   REMARKS
BAUDETTE       CLOUDY    30  20  66 NE10      30.24R WCI  21
FLAG ISLAND    CLOUDY    30  16  55 NE16      30.26S WCI  19
INTL FALLS     CLOUDY    30  20  66 NE10      30.21F WCI  21
WASKISH        CLOUDY    30  28  93 NE6       30.22R WCI  24
BIG FORK       CLOUDY    32  25  74 N9        30.20R WCI  24
LONGVILLE      MIX PCPN  34  32  93 N5        30.16R WCI  30
GRAND RAPIDS   LGT SNOW  34  32  93 N7        30.19R FOG     WCI  28
CRANE LAKE     CLOUDY    28  23  80 N6        30.23R WCI  22
ORR            CLOUDY    28  23  80 MISG      30.17R
COOK           CLOUDY    30  25  80 N7        30.19R WCI  23
WALKER         LGT SNOW  32  31  96 N12       30.17R WCI  23
$$
MNZ012-019>021-037-231100-
   Northeast Minnesota

CITY           SKY/WX    TMP DP  RH WIND       PRES   REMARKS
DULUTH         FLURRIES  36  34  92 NE9       30.12R
ELY            CLOUDY    30  27  86 N5        30.17R WCI  25
HIBBING        LGT SNOW  30  29  96 NE10      30.17R FOG     WCI  21
EVELETH        MIX PCPN  32  27  81 N9G17     30.17R WCI  24
DULUTH HARBOR  CLOUDY    39  37  93 NE18      30.16R
TWO HARBORS      N/A     37  34  87 N3        30.12S
SILVER BAY     LGT SNOW  34  34 100 CALM      30.13S
GRAND MARAIS     N/A     36  28  73 N5        30.16R
G MARAIS ARPRT CLOUDY    28  21  74 NW14G21   30.12R WCI  17
$$
MNZ029>031-032-039>041-046>048-054>057-064-231100-
   West Central Minnesota

CITY           SKY/WX    TMP DP  RH WIND       PRES   REMARKS
FERGUS FALLS   CLOUDY    41  36  81 E14G20    30.11S
WHEATON        PTCLDY    39  36  87 N9        30.13S
MORRIS         CLOUDY    39  37  93 N3        30.07R
ALEXANDRIA     CLOUDY    42  37  82 NE10      30.09S
ELBOW LAKE     FAIR      42  37  83 E12G17    30.10R
WADENA         LGT RAIN  37  34  87 NE9       30.12R
GLENWOOD       CLOUDY    43  37  81 N13       30.08S
APPLETON       PTCLDY    39  37  93 W6        30.09S
BENSON         PTCLDY    39  36  87 NW3       30.10R
ORTONVILLE     CLOUDY    39  36  87 NW10      30.09S
MADISON        PTCLDY    41  41 100 NW7       30.10S
WILLMAR        FAIR      43  41  93 NW7       30.08F
$$
MNZ033>034-036-042>043-049>051-058-059-231100-
   Central Minnesota

CITY           SKY/WX    TMP DP  RH WIND       PRES   REMARKS
ST CLOUD       PTCLDY    45  39  79 N8        30.08R
SAUK CENTRE    CLOUDY    45  38  76 NE9       30.08S
PAYNESVILLE    CLEAR     46  39  79 NE10      30.08R
AITKIN         MIX PCPN  41  34  75 N13       30.12R
PINE RIVER     CLOUDY    37  32  81 N10G17    30.19R
BRAINERD       CLOUDY    40  35  83 NE13      30.12S
STAPLES        CLOUDY    39  34  81 NE9G17    30.12R
LONG PRAIRIE   CLOUDY    43  36  75 N6        30.09S
LITTLE FALLS   CLOUDY    43  34  70 NE7       30.10R
LITCHFIELD     PTCLDY    48  39  71 CALM      30.07F
BUFFALO        CLEAR     46  38  72 CALM      30.07F
MAPLE LAKE     CLEAR     44  39  81 CALM      30.07S
HUTCHINSON     CLOUDY    47  39  75 W6        30.07S
$$
MNZ037-044-045-052-053-231100-
   East Central Minnesota

CITY           SKY/WX    TMP DP  RH WIND       PRES   REMARKS
PRINCETON      MOCLDY    46  39  76 NE7       30.08S
MORA           CLOUDY    43  36  75 N3        30.11R
CAMBRIDGE      MOCLDY    48  37  66 N6        30.07R
RUSH CITY      PTCLDY    44  37  74 N9G16     30.09R
MOOSE LAKE     CLOUDY    41  36  81 NE9       30.10R
HINCKLEY       CLOUDY    45  37  76 N8G20     30.09S
CLOQUET        LGT RAIN  39  34  81 NE8       30.13R
MCGREGOR       CLOUDY    39  36  87 N10       30.14R
$$
MNZ071>073-080-081-089-090-097-098-231100-
   Southwest Minnesota

CITY           SKY/WX    TMP DP  RH WIND       PRES   REMARKS
MONTEVIDEO     CLEAR     39  36  87 N8        30.09S
GRANITE FALLS  PTCLDY    42  39  89 W7        30.10S
CANBY          MOCLDY    40  37  91 CALM      30.11S
MARSHALL       CLOUDY    43  39  86 N10       30.09R
REDWOOD FALLS  MOCLDY    48  36  63 W8        30.08R
OLIVIA         CLOUDY    43  36  75 W6        30.07S
PIPESTONE      PTCLDY    45  34  65 SW9       30.08F
WINDOM         CLEAR     48  34  57 SW7       30.09F
WORTHINGTON    CLEAR     49  33  54 SW13      30.11F
JACKSON        CLEAR     48  32  53 SW10      30.12S
TRACY          PTCLDY    50  37  62 SW14      30.08S
SLAYTON        PTCLDY    46  35  67 SW12      30.09F
$$
MNZ065>067-074>077-082>085-091>093-231100-
   South Central Minnesota

CITY           SKY/WX    TMP DP  RH WIND       PRES   REMARKS
MANKATO        CLOUDY    49  36  61 W8        30.09F
NEW ULM        CLOUDY    48  36  61 SW9       30.07F
ST JAMES       PTCLDY    43  37  81 SW5       30.11F
FAIRMONT       CLEAR     47  36  65 SW10      30.11
GLENCOE        PTCLDY    49  40  72 W3        30.06F
FARIBAULT      MOCLDY    46  37  71 CALM      30.09S
OWATONNA       CLEAR     46  36  66 SW7       30.10S
WASECA         CLEAR     41  36  81 SW5       30.11S
ALBERT LEA     CLEAR     45  36  70 CALM      30.12R
$$
MNZ078>079-086>088-094>096-231100-
   Southeast Minnesota

CITY           SKY/WX    TMP DP  RH WIND       PRES   REMARKS
ROCHESTER      CLEAR     44  35  70 SW9       30.10S
RED WING       CLOUDY    45  36  70 CALM      30.07S
STANTON        MOCLDY    48  37  66 S5        30.07S
DODGE CENTER   CLEAR     45  36  70 SW9       30.10F
WINONA         PTCLDY    48  37  66 NW3       30.09S
AUSTIN         CLEAR     45  34  65 SW5       30.12R
PRESTON        CLEAR     46  32  59 SW10      30.12R
$$
ABBREVIATIONS USED IN REMARKS
   TC - TEMPERATURES IN CELSIUS
  WCI - WIND CHILL INDEX
   HX - HEAT INDEX
  VSB - VISIBILITY
$$




USA.gov is the U.S. government's official web portal to all federal, state and local government web resources and services.